sat.trackr.live / text

‹ back to catalog

HULIANWANG DIGUI-157

NORAD 68131 · 2026-047C

PAYLOAD ACTIVE UNKNOWN

§ Identity

Operator
Country
PRC
Launch date
2026-03-12
Launch site
WSC
Launch vehicle
Mass (kg)
RCS (m²)

External: N2YO · Heavens-Above · Gunter

§ Orbital elements

Epoch: 2026-05-24T23:34:20.307072Z

Period
108.33 min
Inclination
49.9979°
Eccentricity
0.0000193
Mean motion
13.29329727 rev/d
Perigee alt
1,149.1 km
Apogee alt
1,149.4 km
Semi-major
7,527.4 km
B*
7.6848e-5
RAAN
139.4492°
Arg perigee
352.4237°
Mean anomaly
7.6632°
Rev number
998

§ Raw data

HULIANWANG DIGUI-1571 68131U 26047C   26144.98217948 -.00000088  00000+0  76848-4 0  99962 68131  49.9979 139.4492 0000193 352.4237   7.6632 13.29329727  9984

JSON: /api/v1/satellites/68131 · /tle

For live sub-satellite position, see the globe view (requires WebGL).

§ Visibility from observer

Set your observer location to see the next 7 days of passes ≥ 10°. The values pass through the URL so the page stays shareable.

No JS? Fill the form by hand. The geolocation button needs JavaScript.